Location: Waco, TX
(31.5480°N, 97.1670°W)
Time: 03:10:02
(UTC-05:00)

ISS - Pass Details

Date: 22 September 2017
Orbit: 401 x 407 km, 51.6° (Epoch: 22 September)

Event Time Altitude Azimuth Distance (km) Brightness Sun altitude
Rises 04:46:44 0° 327° (NNW) 2,328 - -32.1°
Reaches altitude 10° 04:49:04 10° 341° (NNW) 1,465 - -31.6°
Maximum altitude 04:51:49 24° 38° (NE) 886 - -31.1°
Exits shadow 04:54:23 11° 93° (E) 1,403 -0.4 -30.6°
Drops below altitude 10° 04:54:33 10° 95° (E) 1,460 -0.3 -30.5°
Sets 04:56:53 0° 110° (ESE) 2,316 0.7 -30.1°
